Guymon, OK

8:24 PM CDT on April 24, 2018 (GMT -0500)
Guymon Municipal

Weather History for KGUY - August, 2013

Change the Weather History Date:

Wednesday, August 28, 2013

  Actual Average Record
Temperature  
Mean Temperature 81 °F 77 °F  
Max Temperature 95 °F 90 °F 104 °F (2011)
Min Temperature 67 °F 63 °F 57 °F (2001)
Degree Days  
Heating Degree Days 0 0  
Month to date heating degree days 0 0  
Since 1 June heating degree days 0 8  
Since 1 July heating degree days 0 0  
Cooling Degree Days 16 12  
Month to date cooling degree days 377 372  
Year to date cooling degree days 1490 1214  
Since 1 June cooling degree days 1286 1106  
Growing Degree Days 30 (Base 50)    
Moisture  
Dew Point 59 °F    
Average Humidity 59    
Maximum Humidity 87    
Minimum Humidity 30    
Precipitation  
Precipitation 0.00 in 0.10 in 0.80 in (2002)
Month to date precipitation 4.20 2.63  
Year to date precipitation 10.55 14.48  
Snow  
Snow 0.00 in - - ()
Month to date snowfall 0.0  
Since 1 June snowfall T  
Since 1 July snowfall 0.0  
Snow Depth 0.00 in    
Sea Level Pressure  
Sea Level Pressure 29.90 in    
Wind  
Wind Speed 11 mph (SSW)    
Max Wind Speed 23 mph    
Max Gust Speed 28 mph    
Visibility 10 miles    
Events      
T = Trace of Precipitation, MM = Missing Value Source: NWS Daily Summary

Daily Weather History Graph

Daily Weather History Graph

Search for Another Location

Airport or City:

Astronomy

Aug. 28, 2013 Rise Set
Actual Time 7:14 AM CDT 8:19 PM CDT
Civil Twilight 6:47 AM CDT 8:46 PM CDT
Nautical Twilight 6:15 AM CDT 9:17 PM CDT
Astronomical Twilight 5:42 AM CDT 9:50 PM CDT
Moon 12:27 AM CDT (8/28) 2:54 PM CDT (8/28)
Length of Visible Light 13h 58m
Length of Day
13h 05m
Waning Gibbous, 47% of the Moon is Illuminated
Aug 28
Waning Gibbous
Sep 5
New
Sep 12
First Quarter
Sep 19
Full
Sep 26
Last Quarter

Hourly Weather History & Observations

Time (CDT) Temp. Heat Index Dew Point Humidity Pressure Visibility Wind Dir Wind Speed Gust Speed Precip Events Conditions
12:53 AM 73.9 °F - 61.0 °F 64% 29.91 in 10.0 mi South 10.4 mph - N/A   Clear
1:53 AM 73.0 °F - 62.1 °F 68% 29.91 in 10.0 mi South 9.2 mph - N/A   Clear
2:53 AM 73.0 °F - 62.1 °F 68% 29.91 in 10.0 mi South 8.1 mph - N/A   Clear
3:53 AM 72.0 °F - 62.1 °F 71% 29.91 in 10.0 mi South 8.1 mph - N/A   Clear
4:53 AM 69.1 °F - 62.1 °F 78% 29.90 in 10.0 mi South 6.9 mph - N/A   Clear
5:53 AM 66.9 °F - 62.1 °F 84% 29.90 in 10.0 mi SSW 8.1 mph - N/A   Clear
6:53 AM 68.0 °F - 61.0 °F 78% 29.91 in 10.0 mi South 8.1 mph - N/A   Clear
7:53 AM 69.1 °F - 61.0 °F 75% 29.92 in 10.0 mi South 6.9 mph - N/A   Clear
8:53 AM 75.0 °F - 60.1 °F 60% 29.92 in 10.0 mi SSW 13.8 mph - N/A   Clear
9:53 AM 82.0 °F 82.4 °F 60.1 °F 47% 29.93 in 10.0 mi SSW 16.1 mph 21.9 mph N/A   Clear
10:53 AM 86.0 °F 85.7 °F 60.1 °F 41% 29.93 in 10.0 mi SW 12.7 mph - N/A   Clear
11:53 AM 89.1 °F 88.2 °F 59.0 °F 36% 29.93 in 10.0 mi SW 10.4 mph 20.7 mph N/A   Clear
12:53 PM 91.0 °F 90.0 °F 57.9 °F 33% 29.92 in 10.0 mi SSW 15.0 mph - N/A   Clear
1:53 PM 91.9 °F 90.6 °F 57.0 °F 31% 29.90 in 10.0 mi SSW 20.7 mph 27.6 mph N/A   Clear
2:53 PM 93.9 °F 92.6 °F 57.0 °F 29% 29.89 in 10.0 mi SSW 18.4 mph 24.2 mph N/A   Partly Cloudy
3:53 PM 93.9 °F 92.6 °F 57.0 °F 29% 29.88 in 10.0 mi SSW 16.1 mph 23.0 mph N/A   Clear
4:53 PM 93.0 °F 91.7 °F 57.0 °F 30% 29.87 in 10.0 mi South 9.2 mph 20.7 mph N/A   Clear
5:53 PM 93.9 °F 92.6 °F 57.0 °F 29% 29.86 in 10.0 mi South 9.2 mph 21.9 mph N/A   Clear
6:53 PM 91.9 °F 90.6 °F 57.0 °F 31% 29.86 in 10.0 mi South 13.8 mph 19.6 mph N/A   Clear
7:53 PM 89.1 °F 87.7 °F 57.0 °F 34% 29.87 in 10.0 mi South 8.1 mph - N/A   Clear
8:53 PM 84.0 °F 83.3 °F 57.0 °F 40% 29.89 in 10.0 mi South 9.2 mph - N/A   Clear
9:53 PM 82.9 °F 82.8 °F 59.0 °F 44% 29.89 in 10.0 mi South 10.4 mph - N/A   Clear
10:53 PM 81.0 °F 81.3 °F 59.0 °F 47% 29.90 in 10.0 mi South 12.7 mph - N/A   Clear
11:53 PM 78.1 °F - 57.9 °F 50% 29.91 in 10.0 mi South 10.4 mph - N/A   Clear